Change the Weather History Date:

Tuesday, July 8, 2014

  Actual Average Record
Temperature  
Mean Temperature 84 °F -  
Max Temperature 87 °F 87 °F 91 °F (2006)
Min Temperature 80 °F 81 °F 77 °F (1996)
Cooling Degree Days 18    
Growing Degree Days 34 (Base 50)    
Moisture  
Dew Point 75 °F    
Average Humidity 76    
Maximum Humidity 84    
Minimum Humidity 66    
Precipitation  
Precipitation 0.00 in - - ()
Sea Level Pressure  
Sea Level Pressure 30.00 in    
Wind  
Wind Speed 17 mph ()    
Max Wind Speed 24 mph    
Max Gust Speed -    
Visibility 6.2 miles    
Events      
Averages and records for this station are not official NWS values.
T = Trace of Precipitation, MM = Missing Value Source: Averaged Metar Reports

Daily Weather History Graph

Daily Weather History Graph

Search for Another Location

Airport or City:

Trip Planner

Search our weather history database for the weather conditions in past years. The results will help you decide how hot, cold, wet, or windy it might be!

Date:

Astronomy

Jul. 08, 2014 Rise Set
Actual Time 6:14 AM AST 7:02 PM AST
Civil Twilight 5:50 AM AST 7:25 PM AST
Nautical Twilight 5:23 AM AST 7:52 PM AST
Astronomical Twilight 4:56 AM AST 8:20 PM AST
Moon 3:21 PM AST (7/8) 2:23 AM AST (7/8)
Length of Visible Light 13h 34m
Length of Day
12h 48m
Waxing Gibbous, 81% of the Moon is Illuminated
Jul 8
Waxing Gibbous
Jul 12
Full
Jul 18
Last Quarter
Jul 26
New
Aug 3
First Quarter

Hourly Weather History & Observations

Time (AST) Temp. Heat Index Dew Point Humidity Pressure Visibility Wind Dir Wind Speed Gust Speed Precip Events Conditions
12:00 AM 82.4 °F 89.5 °F 75.2 °F 79% 30.01 in - ENE 18.4 mph - N/A   Unknown
1:00 AM 80.6 °F 86.2 °F 75.2 °F 84% 30.01 in - ENE 19.6 mph - N/A   Unknown
2:00 AM 80.6 °F 86.2 °F 75.2 °F 84% 29.98 in - ENE 23.0 mph - N/A   Unknown
3:00 AM 80.6 °F 86.2 °F 75.2 °F 84% 29.98 in - ENE 18.4 mph - N/A   Unknown
4:00 AM 80.6 °F 86.2 °F 75.2 °F 84% 29.98 in - ENE 18.4 mph - N/A   Unknown
6:00 AM 80.6 °F 86.2 °F 75.2 °F 84% 30.01 in - ENE 16.1 mph - N/A   Unknown
7:00 AM 82.4 °F 89.5 °F 75.2 °F 79% 30.01 in - ENE 18.4 mph - N/A   Unknown
8:00 AM 82.4 °F 89.5 °F 75.2 °F 79% 30.04 in - ENE 21.9 mph - N/A   Unknown
9:00 AM 84.2 °F 92.3 °F 75.2 °F 74% 30.04 in - ENE 19.6 mph - N/A   Unknown
10:00 AM 84.2 °F 92.3 °F 75.2 °F 74% 30.04 in 6.2 mi ENE 21.9 mph - N/A   Mostly Cloudy
11:00 AM 87.8 °F 97.6 °F 75.2 °F 66% 30.04 in 6.2 mi ENE 24.2 mph - N/A   Scattered Clouds
12:00 PM 87.8 °F 97.6 °F 75.2 °F 66% 30.04 in 6.2 mi ENE 21.9 mph - N/A   Scattered Clouds
1:00 PM 87.8 °F 97.6 °F 75.2 °F 66% 30.01 in - ENE 19.6 mph - N/A   Unknown
2:00 PM 87.8 °F 97.6 °F 75.2 °F 66% 30.01 in - East 20.7 mph - N/A   Unknown
3:00 PM 87.8 °F 97.6 °F 75.2 °F 66% 29.98 in 6.2 mi ENE 20.7 mph - N/A   Scattered Clouds
4:00 PM 86.0 °F 93.4 °F 73.4 °F 66% 29.95 in 6.2 mi ENE 20.7 mph - N/A   Scattered Clouds
5:00 PM 86.0 °F 95.1 °F 75.2 °F 70% 29.95 in 6.2 mi ENE 20.7 mph - N/A   Scattered Clouds
6:00 PM 84.2 °F 92.3 °F 75.2 °F 74% 29.95 in 6.2 mi ENE 21.9 mph - N/A   Scattered Clouds
7:00 PM 82.4 °F 89.5 °F 75.2 °F 79% 29.98 in - ENE 19.6 mph - N/A   Unknown
8:00 PM 82.4 °F 89.5 °F 75.2 °F 79% 29.98 in - ENE 18.4 mph - N/A   Unknown
9:00 PM 82.4 °F 89.5 °F 75.2 °F 79% 30.01 in 6.2 mi ENE 18.4 mph - N/A   Scattered Clouds
10:00 PM 82.4 °F 89.5 °F 75.2 °F 79% 30.01 in - ENE 17.3 mph - N/A   Unknown
11:00 PM 82.4 °F 89.5 °F 75.2 °F 79% 30.01 in - ENE 17.3 mph - N/A   Unknown